Regional Weather Roundup
Issued by NWS

Home | Current Version | Previous Version | Text Only | Print | Product List | Glossary Off
Versions: 1 2 3 4 5 6 7 8 9 10 11 12 13 14 15 16 17 18 19 20 21 22 23 24 25 26 27 28 29 30 31 32 33 34 35 36 37 38 39 40 41 42 43 44 45 46 47 48 49 50

000
ASUS43 KLSX 131659
RWRMO

WEATHER SUMMARY FOR MISSOURI
NATIONAL WEATHER SERVICE SPRINGFIELD MO
1200 PM CDT SUN JUL 13 2014

NOTE: "FAIR" INDICATES FEW OR NO CLOUDS BELOW 12,000 FEET WITH NO
       SIGNIFICANT WEATHER AND/OR OBSTRUCTIONS TO VISIBILITY.
       CURRENT SKY AND/OR WEATHER CONDITIONS ARE NOT AVAILABLE FOR
       CHILLICOTHE AND FARMINGTON.

MOZ001>031-035>038-043-044-053-054-131800-
...NORTHERN AND WESTERN MISSOURI...

CITY           SKY/WX    TMP DP  RH WIND       PRES   REMARKS
KANSAS CTY INT CLOUDY    79  73  82 NW8       30.04S
KANSAS C DTWN  CLOUDY    80  73  79 NW8       30.02F
LEE`S SUMMIT   PTSUNNY   81  72  74 NW7       30.03F
ST JOSEPH      MOSUNNY   79  71  76 VRB7      30.04S
CHILLICOTHE      N/A     77  71  82 N5        30.02F
KIRKSVILLE     MOSUNNY   80  69  69 VRB6      30.02F

$$
MOZ066>068-077>081-088>096-101>105-131800-
...SOUTHWEST MISSOURI...

CITY           SKY/WX    TMP DP  RH WIND       PRES   REMARKS
SPRINGFIELD    SUNNY     87  68  52 W6        30.05F HX  90
JOPLIN         SUNNY     92  64  39 SW13      30.02F HX  93

$$
MOZ032>034-039>042-045>050-055>058-069>072-131800-
...CENTRAL MISSOURI...

CITY           SKY/WX    TMP DP  RH WIND       PRES   REMARKS
COLUMBIA       CLOUDY    83  69  62 NW7       30.02F
JEFFERSON CITY PTSUNNY   85  70  60 CALM      30.00F
ROLLA          MOSUNNY   86  67  52 W8        30.01F
SEDALIA        CLOUDY    80  73  79 VRB3      30.03R
WHITEMAN AFB   DRIZZLE   77  66  69 NW5       30.03R
OSAGE BEACH    SUNNY     86  70  58 NW6       30.01R HX  90

$$
MOZ051-052-059>065-131800-
...EAST CENTRAL MISSOURI...

CITY           SKY/WX    TMP DP  RH WIND       PRES   REMARKS
ST LOUIS INTL  PTSUNNY   90  72  55 W8        29.99S HX  97
SPIRIT OF STL  PTSUNNY   87  70  56 W9        29.98S HX  92
ST CHARLES     PTSUNNY   85  71  63 W8        29.98S HX  90

$$
MOZ072>076-082>087-097>100-106>115-131800-
...SOUTH CENTRAL AND SOUTHEAST MISSOURI...

CITY           SKY/WX    TMP DP  RH WIND       PRES   REMARKS
CAPE GIRARDEAU MOSUNNY   90  74  59 SW10      30.01F HX  99
FARMINGTON     MOSUNNY   86  68  54 W6        30.04F
POPLAR BLUFF   MOSUNNY   88  73  61 SW9       30.02F HX  95
WEST PLAINS    MOSUNNY   84  70  62 W6        30.09F

$$


USA.gov is the U.S. government's official web portal to all federal, state and local government web resources and services.